Showing default

COSMOS 2581, 62902

Orbit data source: Space-Track

COSMOS 2581, 62902 is a payload satellite owned by MO RF (CIS) in LEO that was launched on Wed, 05 Feb 2025 UTC via a SOYUZ-2-1V launch vehicle from the Plesetsk Missile And Space Complex (PKMTR). Payload-class satellites include a variety of spacecraft equipped with specific instruments for various scientific and technological missions. These include communications satellites like Starlink; space stations such as the ISS; scientific satellites like the Hubble; Earth observation satellites from companies like Planet Labs, Umbra, and HawkEye 360; GPS; miniature CubeSats for education and research; and military/defense satellites.

Loading next visibility...
Identifier
62902, 2025-026A
Orbit
LEO
Country
Flag of CISCIS
Related business
Manufacturer
VNIIEM
Mission
Operational Defense Imaging
Bus & Motor
EMKA, Unknown motor
Mass
~500 kg wet, 500 kg dry
Launch date (UTC)
2025-02-05 (1 year ago)
Launch vehicle
SOYUZ-2-1V
Launch site
Plesetsk Missile And Space Complex (PKMTR)
Object type
Payload
Rocket body
Debris
Shape & HBR
Cyl + 2 Pan, 1.3 m
Radar Cross Section
3.727 m², Large (>1 m²)

Expand to show TLE details & history
Last TLE update: 22 hours ago

TLE from 22 hours ago
0 COSMOS 2581
1 62902U 25026A   26123.77801183  .00000992  00000-0  88796-4 0  9995
2 62902  81.9931 119.8074 0009584 194.2486 165.8465 14.94885127 67582
Epoch: 2026-05-03T18:40Z
TLE epoch observation values (Epoch: 2026-05-03T18:40:20.222Z)
Latitude
-0°
Longitude
-21.95354°
Altitude
592.238 km
Speed
7.56 km/s
True Right ascension
07h 59m 13s
True Declination
0° 00' 00"
Sunlit
Object was in daylight at epoch
Visualization orbit readout
Latitude
Unknown
Longitude
Unknown
Altitude
Unknown
Speed
Unknown
Apparent Right ascension
Unknown
Apparent Declination
Unknown
Sunlit
N/A
Visualization observer readout
Local Sidereal Time
00:40:03
Azimuth
Unknown
Elevation
Unknown
Doppler factor
Unknown
Orbital elements
Apogee altitude
586.424 km
Perigee altitude
573.087 km
Semi-major axis
6,957.892 km
Eccentricity
0.00096
Inclination
81.9931°
RAAN
119.8074°
Arg. of periapsis
194.2486°
True anomaly
165.87332°
Mean anomaly
165.8465°
Eccentric anomaly
165.85991°
Mean motion
3.73961 °/min
Orbital period
96.27 mins
BSTAR
0.000088796
Loading maneuver chart data...
Computing Atmospheric mass density...
Loading historical data...
Loading historical data...
Loading historical data...
Loading historical data...
Loading historical data...
Loading historical data...
Loading historical data...

Documentation

Showing up to 5 results
|